COMS 1

Last updated on Sat Aug 15 2026 00:02:40 GMT+0000 (Coordinated Universal Time)

1 36744U 10032A 26226.32282031 -.00000019 00000+0 00000+0 0 9998 2 36744 4.9505 74.6365 0010989 17.6386 188.7321 0.99167301 51662
UTC large
Height (km)
Speed (km/s)
/
Latitude / Longitude
Inclination (degrees)
Orbital Period (minutes)
Azimuth
Elevation
Range (km)
Doppler Factor

Next 0 passes for location: London (51.5072 / 0.1276)

No passes found over London.
COMS 1